Change the Weather History Date:

Monday, September 23, 2013

  Actual Average (KLOZ) Record (KLOZ)
Temperature  
Mean Temperature 62 °F 66 °F  
Max Temperature 76 °F 77 °F 95 °F (2007)
Min Temperature 48 °F 54 °F 37 °F (1999)
Degree Days  
Heating Degree Days 3 3  
Month to date heating degree days 20  
Since 1 July heating degree days 21  
Cooling Degree Days 0 3  
Month to date cooling degree days 126  
Growing Degree Days 12 (Base 50)    
Moisture  
Dew Point 55 °F    
Average Humidity 87    
Maximum Humidity 100    
Minimum Humidity 53    
Precipitation  
Precipitation 0.00 in 0.11 in 3.07 in (2006)
Month to date precipitation 2.58  
Sea Level Pressure  
Sea Level Pressure 30.03 in    
Wind  
Wind Speed 0 mph (WSW)    
Max Wind Speed 4 mph    
Max Gust Speed -    
Visibility 7 miles    
Events Fog    
T = Trace of Precipitation, MM = Missing Value Source: NWS Daily Summary

Daily Weather History Graph

Daily Weather History Graph

Search for Another Location

Airport or City:

Trip Planner

Search our weather history database for the weather conditions in past years. The results will help you decide how hot, cold, wet, or windy it might be!

Date:

Astronomy

Sep. 23, 2013 Rise Set
Actual Time 6:23 AM CDT 6:29 PM CDT
Civil Twilight 5:58 AM CDT 6:55 PM CDT
Nautical Twilight 5:27 AM CDT 7:25 PM CDT
Astronomical Twilight 4:57 AM CDT 7:56 PM CDT
Moon 9:09 PM CDT (9/23) 10:34 AM CDT (9/23)
Length of Visible Light 12h 57m
Length of Day
12h 06m
Waning Gibbous, 81% of the Moon is Illuminated
Sep 23
Waning Gibbous
Sep 26
Last Quarter
Oct 4
New
Oct 11
First Quarter
Oct 18
Full

Hourly Weather History & Observations

Time (CDT) Temp. Dew Point Humidity Pressure Visibility Wind Dir Wind Speed Gust Speed Precip Events Conditions
12:15 AM 51.4 °F 51.1 °F 99% 29.99 in 10.0 mi Calm Calm - N/A   Clear
12:35 AM 51.1 °F 50.7 °F 99% 30.00 in 10.0 mi Calm Calm - N/A   Clear
12:55 AM 50.5 °F 50.4 °F 99% 30.00 in 10.0 mi Calm Calm - N/A   Clear
1:15 AM 50.4 °F 50.0 °F 99% 30.00 in 10.0 mi Calm Calm - N/A   Clear
1:35 AM 50.4 °F 50.0 °F 99% 30.00 in 10.0 mi Calm Calm - N/A   Clear
1:55 AM 50.0 °F 49.6 °F 99% 30.00 in 10.0 mi Calm Calm - N/A   Scattered Clouds
2:15 AM 49.6 °F 49.6 °F 100% 30.00 in 0.2 mi Calm Calm - N/A Fog Fog
2:35 AM 50.0 °F 50.0 °F 100% 30.00 in 1.5 mi Calm Calm - N/A   Overcast
2:55 AM 50.0 °F 50.0 °F 100% 30.00 in 0.2 mi Calm Calm - N/A Fog Fog
3:15 AM 50.0 °F 50.0 °F 100% 30.00 in 0.2 mi Calm Calm - N/A Fog Fog
3:35 AM 50.0 °F 50.0 °F 100% 30.00 in 0.2 mi Calm Calm - N/A Fog Fog
3:55 AM 49.3 °F 49.3 °F 100% 30.01 in 0.2 mi Calm Calm - N/A Fog Fog
4:15 AM 48.9 °F 48.9 °F 100% 30.01 in 0.5 mi Calm Calm - N/A Fog Fog
4:35 AM 49.1 °F 49.1 °F 100% 30.01 in 2.5 mi Calm Calm - N/A   Overcast
4:55 AM 49.6 °F 49.6 °F 100% 30.02 in 1.2 mi Calm Calm - N/A   Overcast
5:15 AM 50.0 °F 50.0 °F 100% 30.02 in 0.5 mi Calm Calm - N/A Fog Fog
5:35 AM 49.8 °F 49.8 °F 100% 30.03 in 0.8 mi Calm Calm - N/A   Overcast
5:55 AM 49.6 °F 49.6 °F 100% 30.03 in 1.0 mi Calm Calm - N/A   Overcast
6:15 AM 49.6 °F 49.6 °F 100% 30.04 in 1.8 mi Calm Calm - N/A   Overcast
6:35 AM 50.0 °F 50.0 °F 100% 30.05 in 0.2 mi Calm Calm - N/A Fog Fog
6:55 AM 50.0 °F 50.0 °F 100% 30.06 in 0.8 mi Calm Calm - N/A   Overcast
7:15 AM 50.0 °F 50.0 °F 100% 30.07 in 1.0 mi Calm Calm - N/A   Overcast
7:35 AM 50.0 °F 50.0 °F 100% 30.07 in 0.5 mi Calm Calm - N/A Fog Fog
7:55 AM 50.4 °F 50.4 °F 100% 30.07 in 1.0 mi Calm Calm - N/A   Overcast
8:15 AM 50.4 °F 50.4 °F 100% 30.07 in 1.5 mi Calm Calm - N/A   Overcast
8:35 AM 51.1 °F 51.1 °F 100% 30.08 in 5.0 mi Calm Calm - N/A   Overcast
8:55 AM 51.6 °F 50.9 °F 97% 30.08 in 5.0 mi Calm Calm - N/A   Overcast
9:15 AM 52.3 °F 51.8 °F 98% 30.08 in 10.0 mi Calm Calm - N/A   Overcast
9:35 AM 53.1 °F 51.3 °F 94% 30.08 in 10.0 mi Calm Calm - N/A   Overcast
9:55 AM 54.3 °F 52.0 °F 92% 30.08 in 10.0 mi Calm Calm - N/A   Mostly Cloudy
10:15 AM 57.4 °F 53.6 °F 87% 30.08 in 10.0 mi Calm Calm - N/A   Scattered Clouds
10:35 AM 59.2 °F 53.8 °F 82% 30.08 in 10.0 mi Calm Calm - N/A   Clear
10:55 AM 61.2 °F 55.2 °F 81% 30.08 in 10.0 mi Calm Calm - N/A   Clear
11:15 AM 62.4 °F 55.2 °F 77% 30.07 in 10.0 mi Calm Calm - N/A   Clear
11:35 AM 66.0 °F 56.5 °F 71% 30.07 in 10.0 mi Calm Calm - N/A   Clear
11:55 AM 67.8 °F 55.8 °F 65% 30.06 in 10.0 mi Calm Calm - N/A   Clear
12:15 PM 68.9 °F 56.3 °F 64% 30.05 in 10.0 mi Calm Calm - N/A   Clear
12:35 PM 70.2 °F 56.8 °F 63% 30.05 in 10.0 mi Calm Calm - N/A   Clear
1:15 PM 73.6 °F 58.8 °F 60% 30.03 in 10.0 mi Calm Calm - N/A   Clear
1:35 PM 73.8 °F 59.0 °F 60% 30.02 in 10.0 mi NE 3.5 mph - N/A   Clear
1:55 PM 73.4 °F 58.3 °F 59% 30.02 in 10.0 mi ESE 3.5 mph - N/A   Scattered Clouds
2:15 PM 72.7 °F 57.9 °F 60% 30.02 in 10.0 mi Calm Calm - N/A   Scattered Clouds
2:35 PM 75.4 °F 58.6 °F 56% 30.02 in 10.0 mi Calm Calm - N/A   Scattered Clouds
2:55 PM 75.6 °F 58.8 °F 56% 30.02 in 10.0 mi South 3.5 mph - N/A   Scattered Clouds
3:15 PM 75.7 °F 58.5 °F 55% 30.01 in 10.0 mi SSE 3.5 mph - N/A   Clear
3:35 PM 76.1 °F 59.0 °F 55% 30.01 in 10.0 mi Calm Calm - N/A   Clear
3:55 PM 75.4 °F 58.3 °F 55% 30.01 in 10.0 mi Calm Calm - N/A   Clear
4:15 PM 76.1 °F 58.1 °F 54% 30.01 in 10.0 mi South 3.5 mph - N/A   Clear
4:35 PM 75.9 °F 57.7 °F 53% 30.01 in 10.0 mi Calm Calm - N/A   Clear
4:55 PM 74.7 °F 61.0 °F 62% 30.01 in 10.0 mi Calm Calm - N/A   Clear
5:15 PM 74.1 °F 62.6 °F 67% 30.01 in 10.0 mi West 3.5 mph - N/A   Scattered Clouds
5:35 PM 72.1 °F 62.8 °F 72% 30.01 in 10.0 mi West 3.5 mph - N/A   Scattered Clouds
5:55 PM 68.7 °F 62.6 °F 81% 30.01 in 10.0 mi WNW 3.5 mph - N/A   Scattered Clouds
6:15 PM 67.1 °F 62.4 °F 85% 30.01 in 10.0 mi Calm Calm - N/A   Scattered Clouds
6:35 PM 66.4 °F 62.1 °F 86% 30.02 in 10.0 mi West 3.5 mph - N/A   Scattered Clouds
6:55 PM 65.3 °F 61.7 °F 88% 30.02 in 10.0 mi Calm Calm - N/A   Mostly Cloudy
7:15 PM 64.4 °F 61.2 °F 89% 30.02 in 10.0 mi Calm Calm - N/A   Scattered Clouds
7:35 PM 63.5 °F 60.8 °F 91% 30.03 in 10.0 mi WNW 3.5 mph - N/A   Clear
7:55 PM 62.8 °F 60.3 °F 91% 30.03 in 10.0 mi Calm Calm - N/A   Clear
8:15 PM 61.9 °F 60.1 °F 94% 30.04 in 10.0 mi Calm Calm - N/A   Clear
8:35 PM 61.2 °F 59.4 °F 94% 30.04 in 10.0 mi Calm Calm - N/A   Clear
8:55 PM 60.8 °F 59.0 °F 94% 30.04 in 10.0 mi Calm Calm - N/A   Clear
9:15 PM 60.3 °F 58.8 °F 95% 30.05 in 10.0 mi Calm Calm - N/A   Scattered Clouds
9:35 PM 60.1 °F 58.5 °F 94% 30.05 in 10.0 mi Calm Calm - N/A   Scattered Clouds
9:55 PM 58.5 °F 57.4 °F 96% 30.06 in 10.0 mi Calm Calm - N/A   Scattered Clouds
10:15 PM 58.1 °F 57.4 °F 97% 30.06 in 10.0 mi Calm Calm - N/A   Scattered Clouds
10:35 PM 58.1 °F 57.2 °F 97% 30.06 in 10.0 mi Calm Calm - N/A   Mostly Cloudy
10:55 PM 57.7 °F 57.0 °F 97% 30.06 in 10.0 mi Calm Calm - N/A   Scattered Clouds
11:15 PM 57.6 °F 56.8 °F 97% 30.06 in 10.0 mi Calm Calm - N/A   Mostly Cloudy
11:35 PM 57.2 °F 56.7 °F 98% 30.06 in 7.0 mi Calm Calm - N/A   Overcast
11:55 PM 57.2 °F 57.2 °F 100% 30.06 in 0.2 mi Calm Calm - N/A Fog Fog